TSC186 CYYZ-MDPC

Flight info

Callsign TSC186
Flight time N/A
Altitude 33000
Route RIGUS5/33R PSB J61 EMI/N0454F340 Q119 SCOOB DCT KEMPR/N0453F330 DCT ECG AR8 OHPEA/N0450F350 AR8 OXANA/M078F350 L452 LNHOM/N0457F350 L452 SLUKA/N0459F360 DCT POKEG POKEG1W
Aircraft A321/M-SDE3FGHIRWY/LB1

Departure

Time N/A
Airport Toronto Pearson International Airport (CYYZ)

Arrival

Time 2026-04-30 20:03
Airport Punta Cana International Airport (MDPC)
Time Latitude Longitude Altitude Speed Heading
2026-04-30 17:39 34.91525 -74.44620 34874 ft 511 kts 142°
2026-04-30 17:42 34.66748 -74.13644 34853 ft 510 kts 143°
2026-04-30 17:43 34.54366 -73.98253 34855 ft 510 kts 143°
2026-04-30 17:44 34.39375 -73.79969 34829 ft 503 kts 150°
2026-04-30 17:46 34.24384 -73.72007 34854 ft 461 kts 177°
2026-04-30 17:47 34.11969 -73.67982 34844 ft 463 kts 177°
2026-04-30 17:48 33.90138 -73.60879 34873 ft 464 kts 177°
2026-04-30 17:50 33.65111 -73.52799 34865 ft 466 kts 176°
2026-04-30 17:52 33.46266 -73.46751 34859 ft 468 kts 175°
2026-04-30 17:54 33.18908 -73.38001 34891 ft 471 kts 175°
2026-04-30 17:56 32.93538 -73.29942 34867 ft 473 kts 173°
2026-04-30 17:58 32.74463 -73.23919 34869 ft 474 kts 173°
2026-04-30 18:00 32.48957 -73.15903 34879 ft 476 kts 173°
2026-04-30 18:01 32.32941 -73.10898 34919 ft 477 kts 173°
2026-04-30 18:02 32.13702 -73.04903 34920 ft 477 kts 173°
2026-04-30 18:04 31.94464 -72.98944 34891 ft 477 kts 173°
2026-04-30 18:06 31.68717 -72.90988 34917 ft 477 kts 171°
2026-04-30 18:08 31.46258 -72.84101 34937 ft 476 kts 172°
2026-04-30 18:10 31.20636 -72.76271 34940 ft 476 kts 171°
2026-04-30 18:11 30.98249 -72.69492 34943 ft 476 kts 171°
2026-04-30 18:13 30.82216 -72.64634 34945 ft 476 kts 171°
2026-04-30 18:14 30.66189 -72.59803 34962 ft 476 kts 171°
2026-04-30 18:15 30.46986 -72.54043 34954 ft 475 kts 172°
2026-04-30 18:16 30.34226 -72.50218 34962 ft 475 kts 172°
2026-04-30 18:17 30.27823 -72.48313 34945 ft 475 kts 172°
2026-04-30 18:18 30.18212 -72.45441 34950 ft 476 kts 172°
2026-04-30 18:18 30.11796 -72.43535 34953 ft 476 kts 172°
2026-04-30 18:19 30.05376 -72.41661 34961 ft 476 kts 172°
2026-04-30 18:19 29.98959 -72.39797 34949 ft 476 kts 172°
2026-04-30 18:20 29.92542 -72.37934 34963 ft 476 kts 172°
2026-04-30 18:20 29.86120 -72.36070 34971 ft 476 kts 172°
2026-04-30 18:21 29.79695 -72.34194 34974 ft 476 kts 172°
2026-04-30 18:21 29.73268 -72.32319 34960 ft 476 kts 172°
2026-04-30 18:22 29.66846 -72.30456 34969 ft 476 kts 172°
2026-04-30 18:22 29.57212 -72.27665 34975 ft 476 kts 172°
2026-04-30 18:23 29.50787 -72.25809 34976 ft 476 kts 172°
2026-04-30 18:23 29.44367 -72.23954 34990 ft 476 kts 172°
2026-04-30 18:24 29.34741 -72.21185 34989 ft 475 kts 172°
2026-04-30 18:25 29.28332 -72.19337 34993 ft 475 kts 172°
2026-04-30 18:25 29.18714 -72.16567 34995 ft 475 kts 172°
2026-04-30 18:26 29.09141 -72.13822 34983 ft 475 kts 172°
2026-04-30 18:27 28.99513 -72.11065 34987 ft 476 kts 172°
2026-04-30 18:28 28.89877 -72.08315 34994 ft 476 kts 172°
2026-04-30 18:28 28.80233 -72.05566 34983 ft 477 kts 171°
2026-04-30 18:29 28.67346 -72.01901 34993 ft 478 kts 171°
2026-04-30 18:30 28.54442 -71.98228 34988 ft 478 kts 171°
2026-04-30 18:31 28.44755 -71.95485 34997 ft 478 kts 171°
2026-04-30 18:32 28.35061 -71.92745 35004 ft 478 kts 171°
2026-04-30 18:33 28.25365 -71.90019 34992 ft 479 kts 171°
2026-04-30 18:33 28.15643 -71.87266 34992 ft 481 kts 171°
2026-04-30 18:34 28.05892 -71.84531 34997 ft 481 kts 171°
2026-04-30 18:35 27.99386 -71.82707 34991 ft 482 kts 171°
2026-04-30 18:35 27.92874 -71.80877 34995 ft 482 kts 171°
2026-04-30 18:36 27.83095 -71.78143 35008 ft 483 kts 171°
2026-04-30 18:37 27.73306 -71.75411 35013 ft 483 kts 171°
2026-04-30 18:37 27.66779 -71.73589 34999 ft 484 kts 171°
2026-04-30 18:38 27.60242 -71.71771 35001 ft 484 kts 171°
2026-04-30 18:38 27.53701 -71.69953 35010 ft 484 kts 171°
2026-04-30 18:39 27.47155 -71.68133 35013 ft 485 kts 171°
2026-04-30 18:39 27.40608 -71.66316 35009 ft 485 kts 170°
2026-04-30 18:40 27.34061 -71.64496 35019 ft 485 kts 170°
2026-04-30 18:40 27.28620 -71.62994 35015 ft 484 kts 171°
2026-04-30 18:41 27.20970 -71.60877 35024 ft 484 kts 170°
2026-04-30 18:41 27.15528 -71.59369 35027 ft 484 kts 170°
2026-04-30 18:42 27.08984 -71.57563 35009 ft 484 kts 170°
2026-04-30 18:42 26.99169 -71.54869 35022 ft 484 kts 169°
2026-04-30 18:45 26.63317 -71.45022 35027 ft 480 kts 169°
2026-04-30 18:46 26.56834 -71.43246 35024 ft 479 kts 169°
2026-04-30 18:46 26.50358 -71.41486 35022 ft 479 kts 169°
2026-04-30 18:47 26.43886 -71.39724 35023 ft 479 kts 169°
2026-04-30 18:47 26.37418 -71.37958 35022 ft 479 kts 169°
2026-04-30 18:48 26.30947 -71.36200 35027 ft 479 kts 169°
2026-04-30 18:48 26.24476 -71.34445 35025 ft 478 kts 169°
2026-04-30 18:49 26.18013 -71.32687 35022 ft 478 kts 169°
2026-04-30 18:49 26.11564 -71.30936 35029 ft 476 kts 169°
2026-04-30 18:50 26.05126 -71.29189 35030 ft 476 kts 169°
2026-04-30 18:50 25.98699 -71.27453 35028 ft 475 kts 169°
2026-04-30 18:51 25.92318 -71.25731 35016 ft 475 kts 169°
2026-04-30 18:51 25.85908 -71.24000 35036 ft 473 kts 168°
2026-04-30 18:52 25.79526 -71.22281 35037 ft 471 kts 168°
2026-04-30 18:52 25.73162 -71.20570 35036 ft 470 kts 168°
2026-04-30 18:53 25.66809 -71.18861 35034 ft 469 kts 168°
2026-04-30 18:53 25.60465 -71.17149 35019 ft 469 kts 168°
2026-04-30 18:54 25.54137 -71.15449 35028 ft 468 kts 168°
2026-04-30 18:54 25.47814 -71.13760 35033 ft 467 kts 168°
2026-04-30 18:55 25.41503 -71.12069 35033 ft 466 kts 168°
2026-04-30 18:55 25.32050 -71.09547 35028 ft 466 kts 168°
2026-04-30 18:56 25.22603 -71.07016 35017 ft 466 kts 168°
2026-04-30 18:57 25.13191 -71.04513 35018 ft 466 kts 168°
2026-04-30 18:57 25.06886 -71.02833 35019 ft 466 kts 168°
2026-04-30 18:58 24.97373 -71.00731 35009 ft 464 kts 176°
2026-04-30 18:59 24.87723 -70.99774 35008 ft 464 kts 176°
2026-04-30 19:00 24.74845 -70.98494 35004 ft 465 kts 176°
2026-04-30 19:01 24.61968 -70.97219 35017 ft 464 kts 177°
2026-04-30 19:02 24.52326 -70.96261 35018 ft 464 kts 177°
2026-04-30 19:03 24.39477 -70.94991 35011 ft 463 kts 177°
2026-04-30 19:04 24.26673 -70.93730 35028 ft 461 kts 177°
2026-04-30 19:05 24.13916 -70.92459 35025 ft 460 kts 177°
2026-04-30 19:06 24.01368 -70.89799 35035 ft 459 kts 171°
2026-04-30 19:06 23.92000 -70.87673 35039 ft 457 kts 171°
2026-04-30 19:07 23.82668 -70.85563 35034 ft 456 kts 171°
2026-04-30 19:08 23.70267 -70.82779 35030 ft 454 kts 171°
2026-04-30 19:09 23.60977 -70.80694 35026 ft 454 kts 171°
2026-04-30 19:09 23.54788 -70.79307 35031 ft 454 kts 171°
2026-04-30 19:10 23.42408 -70.76529 35031 ft 454 kts 171°
2026-04-30 19:11 23.33125 -70.74446 35021 ft 454 kts 171°
2026-04-30 19:12 23.26937 -70.73059 35029 ft 454 kts 171°
2026-04-30 19:12 23.20751 -70.71675 35025 ft 454 kts 171°
2026-04-30 19:13 23.08374 -70.68930 35008 ft 454 kts 171°
2026-04-30 19:14 23.02180 -70.67546 35010 ft 454 kts 171°
2026-04-30 19:14 22.95986 -70.66174 35011 ft 454 kts 171°
2026-04-30 19:15 22.89787 -70.64804 35014 ft 454 kts 171°
2026-04-30 19:15 22.80496 -70.62731 34999 ft 455 kts 171°
2026-04-30 19:16 22.74297 -70.61358 35002 ft 455 kts 171°
2026-04-30 19:17 22.64992 -70.59299 35006 ft 455 kts 171°
2026-04-30 19:17 22.55682 -70.57238 35004 ft 455 kts 171°
2026-04-30 19:18 22.46367 -70.55181 35011 ft 455 kts 172°
2026-04-30 19:19 22.40152 -70.53817 35017 ft 456 kts 172°
2026-04-30 19:19 22.30831 -70.51764 35013 ft 456 kts 172°
2026-04-30 19:20 22.24614 -70.50397 35009 ft 456 kts 172°
2026-04-30 19:21 22.15293 -70.48347 35003 ft 456 kts 173°
2026-04-30 19:22 22.02912 -70.45628 35006 ft 456 kts 173°
2026-04-30 19:23 21.84271 -70.41550 34988 ft 455 kts 173°
2026-04-30 19:24 21.74958 -70.39515 34992 ft 455 kts 173°
2026-04-30 19:25 21.59437 -70.36130 34991 ft 455 kts 173°
2026-04-30 19:26 21.47017 -70.33419 34977 ft 456 kts 174°
2026-04-30 19:27 21.37698 -70.31395 34992 ft 456 kts 174°
2026-04-30 19:28 21.29428 -70.29601 34983 ft 455 kts 174°
2026-04-30 19:29 21.17008 -70.26912 34974 ft 455 kts 174°
2026-04-30 19:30 21.04581 -70.24221 34974 ft 456 kts 174°
2026-04-30 19:31 20.92154 -70.21528 34959 ft 455 kts 174°
2026-04-30 19:31 20.82840 -70.19525 34961 ft 455 kts 174°
2026-04-30 19:32 20.76644 -70.18189 34969 ft 454 kts 174°
2026-04-30 19:32 20.70453 -70.16851 34971 ft 454 kts 174°
2026-04-30 19:33 20.64305 -70.15527 34971 ft 454 kts 174°
2026-04-30 19:33 20.58114 -70.14199 34962 ft 453 kts 175°
2026-04-30 19:34 20.51933 -70.12871 34970 ft 453 kts 175°
2026-04-30 19:35 20.42685 -70.10890 34974 ft 452 kts 175°
2026-04-30 19:35 20.36526 -70.09565 34980 ft 451 kts 175°
2026-04-30 19:36 20.30367 -70.08245 34980 ft 451 kts 175°
2026-04-30 19:36 20.21129 -70.06278 34978 ft 451 kts 175°
2026-04-30 19:37 20.15065 -70.04365 34975 ft 463 kts 162°
2026-04-30 19:37 20.09182 -70.01557 34976 ft 463 kts 163°
2026-04-30 19:38 20.03292 -69.98773 34966 ft 463 kts 163°
2026-04-30 19:38 19.97395 -69.95997 34974 ft 463 kts 163°
2026-04-30 19:39 19.91540 -69.93247 34967 ft 463 kts 164°
2026-04-30 19:39 19.85656 -69.90471 34981 ft 462 kts 164°
2026-04-30 19:40 19.79823 -69.87559 34977 ft 469 kts 156°
2026-04-30 19:40 19.74556 -69.83313 34659 ft 478 kts 148°
2026-04-30 19:41 19.72005 -69.81050 34201 ft 479 kts 148°
2026-04-30 19:41 19.69426 -69.78767 33148 ft 486 kts 148°
2026-04-30 19:41 19.66818 -69.76463 32236 ft 489 kts 147°
2026-04-30 19:41 19.64192 -69.74143 31256 ft 493 kts 147°
2026-04-30 19:42 19.61550 -69.71808 30484 ft 493 kts 146°
2026-04-30 19:42 19.58932 -69.69492 29867 ft 489 kts 146°
2026-04-30 19:42 19.56330 -69.67193 29178 ft 485 kts 146°
2026-04-30 19:42 19.53753 -69.64917 28548 ft 480 kts 146°
2026-04-30 19:43 19.51201 -69.62666 27922 ft 475 kts 146°
2026-04-30 19:43 19.48672 -69.60440 27301 ft 470 kts 146°
2026-04-30 19:43 19.46166 -69.58239 26692 ft 466 kts 146°
2026-04-30 19:44 19.41233 -69.53895 25482 ft 456 kts 145°
2026-04-30 19:44 19.38806 -69.51758 24895 ft 451 kts 145°
2026-04-30 19:44 19.36405 -69.49647 24329 ft 446 kts 145°
2026-04-30 19:44 19.34029 -69.47556 23775 ft 441 kts 145°
2026-04-30 19:45 19.31684 -69.45494 23190 ft 436 kts 145°
2026-04-30 19:45 19.29371 -69.43462 22672 ft 428 kts 145°
2026-04-30 19:45 19.27106 -69.41474 22189 ft 418 kts 145°
2026-04-30 19:45 19.24891 -69.39530 21714 ft 409 kts 145°
2026-04-30 19:46 19.22724 -69.37631 21257 ft 400 kts 145°
2026-04-30 19:46 19.20597 -69.35769 20849 ft 394 kts 145°
2026-04-30 19:46 19.18503 -69.33937 20387 ft 388 kts 145°
2026-04-30 19:46 19.16439 -69.32132 19950 ft 383 kts 145°
2026-04-30 19:47 19.14397 -69.30348 19499 ft 379 kts 145°
2026-04-30 19:47 19.13057 -69.29177 19206 ft 376 kts 144°
2026-04-30 19:47 19.10374 -69.26831 18589 ft 372 kts 144°
2026-04-30 19:47 19.08413 -69.25117 18114 ft 369 kts 144°
2026-04-30 19:48 19.06416 -69.23373 17659 ft 365 kts 144°
2026-04-30 19:48 19.04497 -69.21696 17219 ft 361 kts 144°
2026-04-30 19:48 19.02570 -69.20011 16770 ft 358 kts 144°
2026-04-30 19:48 19.00655 -69.18336 16322 ft 356 kts 144°
2026-04-30 19:49 18.98747 -69.16667 16091 ft 358 kts 142°
2026-04-30 19:49 18.95632 -69.12431 15322 ft 371 kts 120°
2026-04-30 19:49 18.94442 -69.10065 14916 ft 367 kts 120°
2026-04-30 19:50 18.93251 -69.07699 14453 ft 363 kts 120°
2026-04-30 19:50 18.92070 -69.05358 13902 ft 360 kts 120°
2026-04-30 19:50 18.90890 -69.03036 13315 ft 357 kts 120°
2026-04-30 19:50 18.89720 -69.00742 12727 ft 353 kts 119°
2026-04-30 19:51 18.88564 -68.98475 12173 ft 348 kts 120°
2026-04-30 19:51 18.87422 -68.96241 11624 ft 344 kts 119°
2026-04-30 19:51 18.86306 -68.94062 11412 ft 329 kts 119°
2026-04-30 19:51 18.85246 -68.91997 11284 ft 311 kts 120°
2026-04-30 19:52 18.84248 -68.90055 11161 ft 292 kts 120°
2026-04-30 19:52 18.83302 -68.88211 10870 ft 281 kts 119°
2026-04-30 19:52 18.82245 -68.86516 10551 ft 272 kts 130°
2026-04-30 19:52 18.81062 -68.84967 10305 ft 271 kts 130°
2026-04-30 19:53 18.79891 -68.83413 9995 ft 270 kts 130°
2026-04-30 19:53 18.78732 -68.81864 9667 ft 268 kts 129°
2026-04-30 19:53 18.77579 -68.80323 9318 ft 267 kts 129°
2026-04-30 19:53 18.76432 -68.78793 9019 ft 265 kts 129°
2026-04-30 19:54 18.75293 -68.77274 8706 ft 263 kts 129°
2026-04-30 19:54 18.74160 -68.75768 8392 ft 262 kts 130°
2026-04-30 19:54 18.73027 -68.74267 8083 ft 261 kts 130°
2026-04-30 19:54 18.71900 -68.72772 7768 ft 259 kts 129°
2026-04-30 19:55 18.70782 -68.71290 7463 ft 257 kts 129°
2026-04-30 19:55 18.69672 -68.69822 7156 ft 255 kts 129°
2026-04-30 19:55 18.68575 -68.68367 6854 ft 252 kts 129°
2026-04-30 19:55 18.67490 -68.66924 6544 ft 250 kts 128°
2026-04-30 19:56 18.66417 -68.65494 6251 ft 248 kts 128°
2026-04-30 19:56 18.65354 -68.64075 5938 ft 245 kts 128°
2026-04-30 19:56 18.64301 -68.62670 5657 ft 244 kts 128°
2026-04-30 19:56 18.63249 -68.61267 5363 ft 244 kts 128°
2026-04-30 19:57 18.62188 -68.59855 5073 ft 249 kts 127°
2026-04-30 19:57 18.61076 -68.58425 4770 ft 255 kts 134°
2026-04-30 19:57 18.59632 -68.57373 4421 ft 251 kts 156°
2026-04-30 19:57 18.57979 -68.56868 4206 ft 244 kts 165°
2026-04-30 19:58 18.56355 -68.56428 3882 ft 237 kts 164°
2026-04-30 19:58 18.54799 -68.55970 3585 ft 229 kts 163°
2026-04-30 19:58 18.53401 -68.55275 3231 ft 220 kts 134°
2026-04-30 19:58 18.52813 -68.53896 2985 ft 202 kts 91°
2026-04-30 19:59 18.53091 -68.52521 2749 ft 187 kts 73°
2026-04-30 19:59 18.53473 -68.51235 2528 ft 181 kts 74°
2026-04-30 19:59 18.54162 -68.48802 2079 ft 165 kts 73°
2026-04-30 20:00 18.54483 -68.47674 1822 ft 154 kts 73°
2026-04-30 20:00 18.54774 -68.46615 1649 ft 148 kts 73°
2026-04-30 20:00 18.55051 -68.45586 1450 ft 145 kts 73°
2026-04-30 20:00 18.55326 -68.44568 1269 ft 143 kts 73°
2026-04-30 20:01 18.55868 -68.42556 919 ft 143 kts 73°
2026-04-30 20:01 18.56140 -68.41546 728 ft 140 kts 72°
2026-04-30 20:01 18.56403 -68.40570 553 ft 140 kts 74°
2026-04-30 20:02 18.56947 -68.38596 155 ft 140 kts 75°
2026-04-30 20:02 18.57212 -68.37630 49 ft 129 kts 73°
2026-04-30 20:03 18.57528 -68.36491 48 ft 53 kts 73°
2026-04-30 20:03 18.57601 -68.36186 49 ft 36 kts 82°
2026-04-30 20:03 18.57591 -68.36009 49 ft 14 kts 108°
2026-04-30 20:03 18.57555 -68.35911 50 ft 14 kts 118°
2026-04-30 20:04 18.57483 -68.35846 50 ft 14 kts 160°
2026-04-30 20:04 18.57390 -68.35833 50 ft 13 kts 176°
2026-04-30 20:04 18.57298 -68.35827 50 ft 13 kts 176°
2026-04-30 20:05 18.57121 -68.35817 50 ft 13 kts 176°
2026-04-30 20:05 18.57032 -68.35812 50 ft 13 kts 176°
2026-04-30 20:05 18.56848 -68.35802 45 ft 14 kts 177°
2026-04-30 20:06 18.56762 -68.35794 48 ft 11 kts 173°
2026-04-30 20:06 18.56691 -68.35786 49 ft 10 kts 174°
2026-04-30 20:06 18.56608 -68.35779 50 ft 14 kts 175°
2026-04-30 20:06 18.56523 -68.35797 50 ft 12 kts 233°
2026-04-30 20:07 18.56506 -68.35880 50 ft 11 kts 264°
2026-04-30 20:07 18.56499 -68.35960 50 ft 11 kts 264°
2026-04-30 20:07 18.56454 -68.36026 50 ft 5 kts 176°
2026-04-30 20:08 18.56424 -68.36024 50 ft 3 kts 175°
2026-04-30 20:08 18.56413 -68.36023 47 ft 1 kts 175°
2026-04-30 20:08 18.56406 -68.36022 49 ft 1 kts 175°
2026-04-30 20:08 18.56405 -68.36022 49 ft 0 kts 175°